Location: *
(40.4000°N, 15.1200°E)
Time: 22:13:33
(UTC+00:00)

HJ-1C - Pass Details

Date: 09 April 2020
Orbit: 431 x 447 km, 97.2° (Epoch: 25 May)

Event Time Altitude Azimuth Distance (km) Brightness Sun altitude
Rises 18:19:28 0° 177° (S) 2,426 6.9 -9.4°
Reaches altitude 10° 18:21:30 10° 182° (S) 1,563 6.0 -9.8°
Maximum altitude 18:24:47 53° 260° (W) 554 4.2 -10.4°
Drops below altitude 10° 18:28:07 10° 339° (NNW) 1,582 6.8 -11.0°
Sets 18:30:12 0° 344° (NNW) 2,460 7.7 -11.3°
